Temperature
12 11 11 11 10 10 10 10 10 9 9 9 9 9 9 9 8 8 8 8 8 8 9 9 9 9 9 10 10 10 10 10 10 11 12 13 13 14 15 15 16 16 16
12 11 11 11 10 10 10 10 9 9 9 9 8 8 8 8 8 8 8 8 8 8 8 8 8 9 9 9 9 10 10 10 10 10 11 12 13 14 14 15 15 15 15
11 11 11 10 10 10 10 9 9 9 9 9 8 8 8 8 8 8 8 8 8 8 8 8 8 8 8 9 9 9 10 10 10 10 11 11 12 13 13 14 15 15 15
11 11 10 10 10 10 9 9 9 9 8 8 8 8 8 8 8 8 8 8 8 8 8 8 8 8 8 8 8 9 9 9 10 10 10 11 11 12 12 13 14 14 15
11 10 10 10 10 9 9 9 9 9 8 8 8 8 8 8 8 8 8 8 8 8 8 8 8 8 8 8 8 8 9 9 9 10 10 10 11 11 12 12 13 13 13
11 10 10 10 10 9 9 9 9 9 8 8 8 8 8 8 8 8 8 8 8 8 8 8 8 7 7 7 8 8 8 9 9 9 10 10 10 11 12 12 12 12 13
10 10 10 9 9 9 9 9 9 9 8 8 8 8 8 8 8 8 8 7 7 8 8 8 8 7 7 7 7 8 8 8 9 9 9 10 10 11 11 12 12 12 13
10 10 10 9 9 9 9 9 9 8 8 8 8 8 8 8 8 8 8 7 7 7 7 7 7 7 7 7 7 7 8 8 8 9 9 10 10 10 10 11 11 12 12
10 10 9 9 9 9 9 9 8 8 8 8 8 8 8 8 8 8 7 7 7 7 7 7 7 7 7 7 6 7 7 8 8 8 9 9 10 10 10 10 11 11 11
10 10 9 9 9 9 9 9 8 8 8 8 8 8 8 8 8 7 7 7 7 7 7 7 7 6 7 6 6 6 7 7 8 8 9 9 9 9 10 10 10 11 11
10 10 9 9 9 9 8 8 8 8 8 8 8 8 8 8 7 7 7 6 6 6 6 6 6 6 6 6 6 6 7 7 8 8 8 9 9 9 9 10 10 11 11
10 10 9 9 9 8 8 8 8 8 8 8 8 8 8 7 7 7 7 6 6 6 6 6 6 6 6 6 6 6 7 7 7 8 8 8 9 9 9 10 10 10 11
10 10 9 9 9 8 8 8 8 8 8 8 8 8 8 7 7 7 6 6 6 6 6 6 6 6 6 6 6 6 6 6 7 7 8 8 9 9 9 9 10 10 10
10 10 9 9 9 9 8 8 8 8 8 8 8 7 7 7 7 7 6 6 6 6 6 6 6 6 6 6 6 6 6 6 7 7 8 8 9 9 9 9 9 9 10
10 10 9 9 9 9 9 8 8 8 8 8 8 7 7 7 7 7 6 6 6 6 6 6 6 6 6 6 6 6 6 6 7 7 7 8 8 8 9 9 9 9 9
11 10 10 9 9 9 8 9 9 8 8 8 8 7 7 7 7 7 6 6 6 6 6 6 6 6 6 6 6 6 6 7 7 7 7 8 8 8 8 9 9 9 9
11 10 10 9 9 9 8 8 9 9 9 8 8 8 8 7 7 7 7 6 6 6 6 6 6 6 6 6 6 6 6 6 7 7 7 8 8 8 8 8 9 9 9
11 10 10 9 9 8 8 8 8 8 8 9 8 8 8 8 7 7 7 7 6 6 6 6 6 6 6 6 6 6 6 6 7 7 7 7 8 8 8 8 8 9 9
11 10 10 9 9 8 8 8 8 8 8 8 8 8 8 8 8 7 7 7 7 6 6 6 6 6 6 6 6 6 6 7 7 7 7 7 8 8 8 8 8 8 9
11 10 9 9 9 8 8 8 8 8 8 8 8 8 8 8 8 7 7 7 7 7 7 7 7 7 7 7 7 7 7 7 7 7 7 8 8 8 8 8 8 8 8
10 10 9 9 9 8 8 8 8 8 8 8 8 8 8 8 8 7 7 7 7 7 7 7 7 7 7 7 7 7 7 7 7 8 8 8 8 8 8 8 8 8 8
10 10 9 9 8 8 8 8 8 8 8 8 8 8 8 8 7 7 7 7 7 7 7 7 7 7 7 7 7 7 8 8 8 8 8 8 8 8 8 8 8 8 8
10 10 9 9 8 8 8 8 8 8 8 8 8 8 8 8 8 7 7 7 7 7 7 7 7 7 7 7 7 7 8 8 8 8 8 8 8 8 8 8 8 8 8
10 10 9 8 8 8 8 8 8 8 8 8 8 8 8 8 8 8 7 7 7 7 7 7 7 7 7 7 7 7 8 8 8 8 8 8 8 8 8 8 8 8 8
10 9 8 8 8 7 7 8 8 8 8 8 8 8 8 8 8 8 7 7 7 7 7 7 7 7 7 7 7 7 8 8 8 8 8 8 8 8 8 8 8 8 8
9 8 8 8 7 7 7 7 7 8 8 8 8 8 8 8 8 8 8 7 7 7 7 7 6 7 7 7 7 7 7 7 8 8 8 8 8 8 8 8 8 8 8
Wind_Speed
6 6 6 6 6 6 6 7 7 7 7 8 8 8 8 8 7 6 7 7 7 7 6 6 7 7 6 5 5 5 5 5 6 5 3 4 4 4 2 1 2 4 8
6 6 6 6 6 6 7 8 7 8 8 8 8 8 9 9 8 8 9 8 8 8 8 8 9 7 7 6 5 6 6 6 5 6 4 3 3 3 1 1 1 2 3
6 6 6 6 7 7 8 8 8 8 9 9 8 9 10 10 9 9 9 9 9 9 9 9 9 8 8 7 7 7 6 6 6 5 4 3 3 1 0 2 3 2 3
5 6 6 7 7 7 8 8 8 8 9 9 9 10 10 10 11 11 10 10 10 10 9 10 10 10 10 9 8 8 8 7 6 6 5 4 3 2 2 2 3 2 3
5 6 7 7 7 7 8 8 8 8 9 9 10 10 10 9 10 10 10 10 10 10 10 10 10 12 13 11 8 8 8 7 7 6 5 3 4 3 3 3 3 4 3
6 7 7 7 7 8 8 8 9 9 9 9 9 10 10 9 11 14 13 11 11 11 12 11 10 12 14 15 16 14 12 10 9 7 6 6 5 4 4 4 4 5 4
6 7 7 7 8 8 9 9 10 9 9 10 10 10 11 12 15 16 16 12 11 12 12 11 10 10 12 11 12 14 14 17 15 10 9 8 6 6 5 7 6 6 4
7 7 7 7 8 9 9 10 10 9 9 9 10 10 10 12 14 15 15 11 11 12 12 12 12 12 12 11 11 11 11 11 13 12 10 10 8 6 5 5 6 5 4
7 7 8 7 9 9 10 10 9 9 9 9 9 10 11 12 13 14 12 8 9 12 12 12 12 13 14 14 13 12 11 10 11 13 13 11 11 9 6 5 6 8 5
8 8 7 7 8 10 10 10 9 8 10 10 10 10 10 11 13 13 11 6 8 9 9 10 13 14 14 14 13 12 12 11 9 9 10 11 10 10 10 8 7 8 6
7 7 7 8 8 9 9 8 9 9 9 9 10 10 9 10 11 12 10 5 7 8 8 8 8 12 15 15 14 12 13 11 9 9 8 8 7 7 8 9 8 8 7
6 7 8 8 8 8 8 9 8 8 9 9 9 10 8 7 8 9 10 8 8 7 8 7 8 11 12 12 11 13 14 11 7 7 7 8 8 8 8 9 9 8 5
6 7 8 8 8 8 8 9 8 7 7 7 7 8 8 7 6 9 9 9 9 7 7 9 10 11 10 8 11 13 11 8 8 8 9 9 8 8 7 7 8 7 5
7 7 7 8 9 8 7 6 7 7 7 7 7 8 8 7 6 4 4 4 5 5 5 6 8 8 6 6 6 8 8 8 9 9 9 8 6 6 7 7 7 8 6
7 7 7 7 8 8 8 7 8 8 8 8 8 8 8 8 7 6 5 5 4 4 5 4 3 3 3 3 4 5 6 7 8 7 7 7 7 6 6 6 7 8 8
6 6 6 6 7 7 8 9 9 10 12 13 13 11 9 11 12 11 10 10 9 7 4 4 4 4 4 4 4 5 5 6 7 7 7 7 7 7 6 6 7 9 9
7 7 6 6 6 7 7 7 10 10 10 10 11 11 11 11 12 11 11 10 9 6 4 5 5 5 5 5 5 5 5 6 6 6 7 7 7 7 6 7 8 9 9
7 7 7 6 6 7 7 7 7 8 9 8 9 11 11 11 11 10 8 5 5 4 5 6 6 6 5 5 5 5 5 5 5 6 6 6 7 7 6 7 7 9 9
6 6 6 6 6 6 6 6 7 7 7 8 8 8 8 8 8 8 5 4 5 6 6 6 6 6 6 5 5 5 5 6 6 7 6 7 7 7 7 7 7 10 10
6 8 7 6 6 6 6 6 6 7 7 8 8 8 6 4 5 5 4 5 6 6 6 6 6 6 6 6 6 6 6 6 7 7 7 7 7 7 7 8 8 9 9
5 6 8 6 5 5 6 6 6 6 7 8 8 8 8 6 6 7 6 5 6 6 6 6 6 6 6 5 5 6 7 7 7 8 8 7 8 7 7 7 8 9 9
5 5 4 5 5 5 6 6 6 6 7 8 8 8 9 5 5 5 6 6 6 6 6 5 5 5 5 5 6 6 7 7 7 8 8 8 8 8 8 8 8 9 9
5 5 5 5 5 6 6 5 5 5 6 7 7 7 7 6 5 5 6 6 5 5 4 4 4 4 4 4 5 6 7 7 7 8 8 8 8 8 8 8 10 11 11
5 5 5 4 4 4 5 5 5 5 6 6 7 7 7 7 6 6 6 5 5 4 3 3 3 5 5 4 4 5 6 6 6 7 10 9 9 8 8 9 10 12 12
5 4 4 3 4 4 4 5 5 6 6 6 6 7 7 7 6 7 6 5 6 5 5 4 3 4 5 5 5 4 5 6 6 6 8 9 10 10 10 10 10 11 11
4 4 3 3 3 3 4 4 5 6 6 6 6 6 7 7 6 6 6 5 5 5 5 4 4 4 4 3 4 4 4 5 6 7 7 8 10 10 11 9 12 11 13
Wind_Direction
270 269 272 275 276 277 273 272 274 277 278 277 279 281 281 281 276 266 263 261 258 263 265 261 262 259 255 250 242 240 240 238 262 281 281 308 313 318 326 296 214 193 197
269 271 272 276 281 282 279 278 278 279 281 278 280 281 281 280 275 269 269 268 257 258 260 259 263 264 255 251 242 240 239 235 246 274 289 297 300 315 312 98 82 116 153
276 274 279 281 282 281 281 283 283 281 283 283 281 280 280 280 279 274 267 266 260 256 254 252 256 256 257 253 245 242 241 240 233 249 272 282 278 273 149 104 104 95 96
279 277 278 278 278 279 282 284 283 281 282 282 280 278 278 279 279 277 272 268 265 260 253 249 250 248 249 250 248 243 240 239 234 237 252 262 263 244 193 172 148 126 109
279 278 275 278 280 282 283 284 285 284 283 279 280 280 278 278 273 269 269 270 267 266 260 252 248 247 246 245 243 238 233 232 229 230 237 242 246 231 200 177 168 142 113
273 274 279 283 285 285 285 287 288 288 287 284 280 279 280 277 273 272 273 273 270 268 267 261 253 255 256 253 248 241 227 224 224 222 226 230 235 233 206 182 165 164 165
272 276 281 283 286 287 291 292 290 288 287 287 283 279 278 275 272 274 275 274 269 267 265 262 261 256 246 244 249 251 243 230 221 216 220 222 225 222 209 194 189 180 166
275 278 282 285 287 291 292 291 288 287 287 286 285 283 280 279 276 275 277 276 268 265 261 258 255 255 248 240 244 248 249 242 230 226 224 223 221 217 215 209 187 153 115
273 274 279 282 288 293 293 290 290 290 291 288 285 283 281 283 280 278 279 276 269 268 265 260 253 252 244 234 237 242 245 246 240 226 220 222 215 209 203 189 182 174 164
266 269 276 280 284 288 288 288 288 288 289 291 288 283 279 281 282 282 282 269 268 271 271 265 256 250 244 233 233 232 236 239 234 225 221 223 220 215 206 202 193 189 169
264 272 279 281 283 283 283 283 288 291 293 292 290 289 283 277 282 283 284 264 260 269 272 271 263 251 246 238 228 229 229 227 225 221 219 216 212 210 209 209 202 198 185
263 272 279 284 286 289 286 291 291 290 294 296 296 297 291 282 277 283 285 276 262 260 265 268 267 262 255 244 231 229 225 220 222 215 214 213 209 209 208 207 206 202 195
262 272 281 290 290 285 284 290 297 295 293 296 296 295 297 295 285 277 283 288 282 265 262 264 270 269 261 252 235 225 216 213 211 210 213 212 210 207 202 201 202 191 168
261 277 286 293 297 297 291 284 286 290 294 297 296 294 294 295 292 289 291 294 292 285 282 280 277 272 255 243 234 220 214 209 206 209 209 207 198 196 200 196 195 184 169
259 275 286 288 289 297 298 286 281 275 264 271 282 281 285 291 286 276 279 281 278 280 293 283 271 265 258 246 230 214 207 204 207 209 206 200 193 194 199 198 193 184 179
260 275 281 289 293 295 303 309 283 268 276 268 255 257 263 257 272 282 278 273 272 274 266 262 266 260 256 246 234 220 209 205 203 201 203 199 193 194 196 196 195 191 183
247 266 278 285 292 297 302 307 312 313 304 293 282 277 268 270 271 274 275 276 273 254 243 253 254 253 251 246 234 224 218 208 199 197 196 195 195 196 194 196 197 191 185
244 261 269 276 284 289 293 295 295 300 309 311 304 293 288 281 274 269 265 274 269 235 238 248 251 250 245 238 233 227 222 209 205 204 197 194 195 194 194 198 200 194 183
243 257 267 275 280 282 287 292 294 294 294 297 303 305 300 294 283 269 242 241 260 262 253 250 249 248 246 238 230 226 222 213 207 202 202 199 196 194 197 201 199 189 181
245 260 272 278 286 290 293 297 301 303 302 301 300 302 313 314 304 296 259 249 253 259 259 253 250 246 243 238 227 222 218 216 208 205 204 202 198 196 199 201 197 189 185
241 263 276 281 280 286 293 296 299 301 301 302 300 297 295 294 292 294 291 277 263 260 259 254 249 244 238 232 227 221 218 213 208 206 204 200 197 197 200 200 196 188 179
230 250 264 273 282 288 293 294 297 299 303 304 306 308 307 297 292 294 296 292 284 272 262 254 254 248 238 232 225 220 219 214 207 204 202 197 194 197 195 194 189 180 177
224 245 261 270 278 290 297 299 302 303 304 305 309 313 315 311 303 297 298 300 298 294 282 256 253 256 247 237 228 222 221 219 212 201 195 193 193 194 192 191 186 178 178
220 237 253 268 280 289 297 304 307 307 307 309 314 318 319 317 313 309 306 306 307 304 297 274 257 261 264 253 236 230 228 223 211 204 198 194 192 191 188 189 185 182 179
214 229 243 259 276 288 298 306 311 314 315 316 319 321 325 328 328 326 324 323 321 320 314 303 283 272 273 266 252 238 223 214 209 202 196 195 193 191 189 186 183 180 178
202 217 235 252 269 285 298 307 314 319 320 320 323 324 328 331 331 330 329 328 331 331 329 323 319 309 297 281 264 243 218 211 208 206 198 193 192 193 189 186 183 182 180
Height
1508 1506 1504 1502 1500 1498 1495 1492 1490 1487 1485 1482 1480 1478 1476 1474 1473 1472 1470 1469 1469 1468 1468 1468 1468 1469 1469 1470 1471 1471 1471 1471 1470 1468 1469 1469 1470 1472 1473 1475 1478 1481 1485
1504 1503 1501 1498 1496 1493 1491 1488 1485 1482 1480 1477 1475 1472 1471 1469 1468 1466 1465 1464 1463 1462 1462 1462 1462 1463 1463 1464 1465 1466 1467 1467 1467 1465 1465 1466 1467 1468 1470 1472 1474 1477 1481
1501 1499 1496 1494 1491 1489 1486 1483 1480 1477 1474 1472 1469 1467 1465 1463 1462 1460 1459 1458 1457 1456 1456 1456 1456 1456 1456 1457 1459 1460 1461 1462 1462 1462 1462 1462 1463 1465 1467 1469 1471 1474 1477
1497 1494 1492 1490 1487 1484 1481 1478 1475 1472 1469 1466 1464 1462 1460 1458 1456 1454 1453 1452 1451 1450 1450 1449 1449 1449 1450 1451 1452 1454 1455 1457 1458 1458 1458 1459 1460 1462 1464 1465 1468 1470 1473
1493 1490 1488 1485 1482 1479 1476 1473 1469 1466 1463 1461 1458 1456 1454 1452 1450 1449 1447 1446 1444 1444 1443 1443 1443 1443 1443 1444 1445 1447 1449 1451 1452 1453 1454 1455 1457 1458 1460 1462 1465 1467 1470
1489 1486 1483 1481 1477 1474 1471 1467 1464 1461 1458 1455 1453 1451 1449 1447 1445 1443 1442 1439 1438 1437 1436 1436 1436 1436 1436 1437 1439 1440 1442 1444 1446 1448 1449 1451 1452 1454 1456 1458 1461 1464 1467
1484 1482 1479 1476 1472 1469 1466 1462 1458 1455 1452 1450 1448 1446 1443 1441 1440 1438 1436 1434 1432 1430 1429 1428 1428 1428 1429 1430 1431 1433 1435 1437 1440 1442 1444 1446 1448 1450 1452 1454 1457 1460 1463
1480 1478 1475 1471 1468 1464 1461 1457 1454 1451 1448 1445 1443 1441 1438 1436 1434 1432 1430 1427 1425 1423 1422 1421 1420 1420 1421 1422 1423 1425 1427 1430 1433 1436 1438 1441 1444 1445 1447 1450 1453 1456 1459
1476 1473 1471 1467 1463 1460 1456 1453 1450 1447 1444 1441 1438 1435 1433 1430 1428 1426 1423 1420 1418 1416 1415 1414 1413 1412 1413 1414 1415 1417 1419 1422 1426 1429 1432 1435 1438 1441 1442 1445 1447 1451 1454
1472 1469 1466 1462 1459 1455 1452 1449 1446 1443 1439 1436 1433 1430 1428 1425 1422 1420 1417 1414 1411 1410 1408 1407 1406 1405 1405 1406 1407 1409 1411 1415 1419 1423 1426 1429 1432 1435 1437 1440 1443 1446 1449
1468 1465 1461 1458 1454 1451 1448 1445 1442 1438 1435 1432 1428 1426 1423 1420 1417 1414 1411 1408 1405 1403 1401 1400 1399 1398 1398 1399 1400 1402 1404 1409 1412 1416 1419 1423 1426 1429 1432 1434 1438 1441 1444
1463 1460 1457 1453 1450 1447 1443 1440 1438 1434 1431 1427 1424 1421 1418 1415 1411 1408 1406 1403 1400 1398 1396 1395 1393 1392 1392 1392 1394 1396 1399 1403 1405 1409 1412 1415 1419 1423 1426 1429 1433 1436 1440
1459 1456 1452 1449 1446 1443 1439 1436 1433 1430 1427 1423 1419 1415 1412 1410 1406 1403 1401 1398 1396 1394 1392 1390 1389 1388 1387 1387 1389 1391 1394 1396 1399 1402 1405 1409 1413 1417 1421 1424 1427 1431 1435
1455 1452 1448 1445 1442 1439 1436 1433 1429 1426 1422 1419 1415 1411 1408 1405 1402 1399 1397 1394 1392 1390 1389 1387 1386 1384 1384 1383 1384 1386 1388 1390 1393 1397 1400 1404 1408 1412 1415 1418 1421 1425 1429
1450 1447 1444 1440 1437 1434 1431 1429 1425 1422 1419 1415 1411 1408 1404 1401 1398 1395 1393 1391 1389 1387 1385 1384 1383 1382 1381 1380 1380 1382 1384 1386 1389 1392 1396 1399 1402 1406 1409 1413 1416 1419 1423
1446 1443 1439 1436 1433 1430 1427 1424 1422 1419 1415 1412 1408 1405 1401 1398 1394 1392 1389 1387 1385 1384 1382 1381 1380 1379 1378 1378 1378 1378 1380 1382 1385 1388 1391 1394 1398 1401 1404 1408 1411 1414 1418
1442 1439 1435 1432 1429 1426 1423 1420 1417 1414 1412 1409 1405 1401 1398 1394 1391 1388 1386 1384 1382 1380 1379 1377 1377 1376 1376 1375 1375 1376 1377 1379 1382 1385 1388 1391 1394 1397 1400 1403 1406 1409 1413
1438 1434 1431 1428 1425 1423 1420 1417 1414 1410 1407 1404 1401 1398 1394 1391 1388 1385 1382 1380 1378 1376 1375 1374 1373 1373 1373 1373 1373 1374 1375 1377 1379 1381 1384 1387 1390 1393 1395 1398 1401 1404 1408
1433 1431 1427 1425 1422 1419 1416 1413 1411 1408 1404 1401 1397 1394 1392 1388 1385 1382 1379 1376 1374 1372 1371 1370 1370 1370 1370 1370 1370 1371 1372 1374 1376 1378 1381 1384 1386 1389 1392 1394 1397 1400 1403
1430 1427 1424 1421 1418 1415 1413 1410 1407 1404 1401 1398 1394 1391 1388 1385 1381 1379 1375 1373 1371 1369 1368 1366 1366 1366 1366 1367 1367 1368 1369 1371 1373 1375 1378 1380 1383 1385 1388 1391 1393 1396 1399
1425 1423 1420 1417 1414 1412 1409 1407 1404 1401 1398 1395 1392 1389 1385 1382 1378 1375 1372 1369 1367 1365 1364 1363 1362 1362 1363 1364 1364 1365 1366 1368 1370 1372 1374 1377 1379 1382 1385 1387 1390 1393 1396
1420 1418 1416 1413 1411 1408 1406 1403 1401 1398 1396 1393 1389 1386 1383 1379 1376 1373 1370 1367 1364 1362 1360 1359 1358 1359 1359 1360 1361 1362 1363 1364 1366 1368 1370 1373 1376 1378 1381 1384 1386 1389 1393
1415 1413 1411 1409 1407 1404 1402 1400 1398 1396 1393 1390 1387 1384 1380 1377 1373 1370 1367 1364 1361 1359 1357 1356 1355 1355 1355 1356 1357 1358 1359 1361 1363 1364 1367 1369 1371 1374 1377 1380 1383 1386 1390
1410 1408 1406 1404 1402 1400 1399 1397 1395 1393 1391 1388 1385 1382 1379 1375 1372 1368 1365 1362 1359 1356 1354 1353 1352 1352 1352 1352 1352 1353 1355 1356 1358 1360 1363 1365 1368 1370 1373 1376 1379 1383 1386
1404 1403 1402 1400 1398 1396 1395 1393 1392 1390 1388 1386 1383 1381 1378 1374 1371 1367 1364 1360 1357 1355 1353 1351 1350 1349 1348 1348 1348 1349 1350 1352 1354 1356 1359 1361 1364 1367 1370 1373 1376 1380 1383
1399 1398 1397 1395 1394 1393 1391 1390 1388 1387 1385 1384 1382 1379 1376 1373 1370 1367 1363 1360 1357 1354 1352 1349 1347 1346 1345 1344 1344 1344 1345 1347 1349 1351 1354 1357 1360 1363 1366 1369 1373 1377 1381